Powrót do katalogu

STARLINK-1302

AktywnyŁącznośćVLEO
NORAD 45375·PAYLOAD·🇺🇸 United States

Wystrzelony Mar 18, 2020 z Cape Canaveral Space Force Station

Loading…

Następne Przeloty (najbliższe 24 godziny)

TLE

ŚwieżeSource: CelesTrak SupGP

Epoka: Sep 14, 2026, 20:00 UTC

1 45375C 20019R   26257.83381944  .00047139  00000+0  26480-3 0  2571
2 45375  53.0389 300.3543 0006537  30.3560 246.8253 15.78503819    18

Śledź STARLINK-1302 w czasie rzeczywistym z AllMySat

Download on the App Store